Location: Aressy
(43.2833°N, 0.3167°W)
Time: 02:05:38
(UTC+00:00)

H-2A R/B - Pass Details

Date: 28 January 2021
Orbit: 734 x 836 km, 98.2° (Epoch: 08 March)

Event Time Altitude Azimuth Distance (km) Brightness Sun altitude
Rises 18:59:27 0° 173° (S) 3,189 5.2 -20.3°
Reaches altitude 10° 19:01:43 10° 176° (S) 2,282 4.5 -20.7°
Maximum altitude 19:06:43 67° 258° (WSW) 840 2.3 -21.6°
Drops below altitude 10° 19:11:54 10° 342° (NNW) 2,364 4.7 -22.6°
Sets 19:14:18 0° 345° (NNW) 3,314 5.4 -23.0°
